Flag for United Kingdom Weather past 2 weeks in Perth, Scotland, United Kingdom

Now
40 °F

Quite cool.


Feels Like: 35 °F
Forecast: 31 / 47 °F
Wind: 8 mph from West

Location: Strathallan

Current Time: Apr 1, 2015 at 11:51:24 PM

Latest Report: Apr 1, 2015 at 9:00 PM


Visibility: 31 mi

Pressure: 29.93 "Hg

Humidity: 67%

Dew point: 30 °F

Location of PerthLocation

Historic Weather in Perth — Graph

°F

Perth temperature yesterday

Maximum temperature yesterday: 45 °F (at 2:00 AM)
Minimum temperature yesterday: 36 °F (at 4:00 PM)
Average temperature yesterday: 40 °F

Past Weeks' High & Low Weather Summary

 TemperatureHumidityPressure
High54 °F (Mar 20, 12:00 PM)100% (Mar 18, 7:00 AM)30.60 "Hg (Mar 18, 7:00 AM)
Low28 °F (Mar 25, 7:00 AM)44% (Mar 21, 2:00 PM)28.85 "Hg (Mar 31, 1:00 AM)
Average42 °F79%29.88 "Hg
* Reported Mar 17 8:00 PM — Apr 1 9:00 PM, Perth, Weather by CustomWeather, © 2015

Note: Actual official high and low records may vary slightly from our data, if they occured in-between our weather recording intervals... More about our weather records

Advertising

Perth weather history for previous 24 hours

 ConditionsComfort  
Time TempWeatherWind HumidityBarometerVisibility
9:00 PM
Wed, Apr 1
40 °FQuite cool.8 mph67%29.93 "Hg31 mi
8:00 PM42 °FQuite cool.9 mph67%29.92 "Hg28 mi
7:00 PM42 °FQuite cool.12 mph64%29.92 "Hg28 mi
6:00 PM44 °FQuite cool.16 mph59%29.92 "Hg31 mi
5:00 PM44 °FQuite cool.17 mph57%29.92 "Hg28 mi
4:00 PM47 °FCool.20 mph53%29.92 "Hg31 mi
3:00 PM46 °FCool.18 mph65%29.92 "Hg22 mi
2:00 PM47 °FCool.20 mph61%29.93 "Hg22 mi
1:00 PM43 °FQuite cool.18 mph69%29.93 "Hg31 mi
12:00 PM43 °FLight freezing rain. Cloudy.22 mph70%29.94 "Hg7 mi
11:00 AM44 °FQuite cool.16 mph71%29.92 "Hg25 mi
10:00 AM41 °FQuite cool.13 mph75%29.93 "Hg16 mi
9:00 AM38 °FChilly.13 mph79%29.95 "Hg22 mi
8:00 AM35 °FChilly.8 mph86%29.95 "Hg28 mi
7:00 AM35 °FChilly.10 mph83%29.93 "Hg31 mi
6:00 AM34 °FChilly.8 mph92%29.93 "Hg25 mi
5:00 AM34 °FRain showers. Overcast.10 mph93%29.92 "Hg13 mi
3:00 AM37 °FFog.22 mph76%29.88 "Hg12 mi
2:00 AM36 °FChilly.10 mph85%29.85 "Hg31 mi
1:00 AM37 °FChilly.13 mph81%29.84 "Hg31 mi
12:00 AM37 °FChilly.7 mph79%29.81 "Hg31 mi
11:00 PM
Tue, Mar 31
37 °FChilly.10 mph77%29.78 "Hg31 mi
Weather by CustomWeather, © 2015

See weather overviewHow to use our weather pages